Regional Weather Roundup
Issued by NWS Sterling, VA

Home | Current Version | Previous Version | Graphics & Text | Print | Product List | Glossary On
Versions: 1 2 3 4 5 6 7 8 9 10 11 12 13 14 15 16 17 18 19 20 21 22 23 24 25 26 27 28 29 30 31 32 33 34 35 36 37 38 39 40 41 42 43 44 45 46 47 48 49 50
000
ASUS41 KLWX 160610
RWRLWX

REGIONAL WEATHER ROUNDUP
NATIONAL WEATHER SERVICE BALTIMORE MD/WASHINGTON DC
200 AM EDT TUE SEP 16 2014

Note: "FAIR" indicates few or no clouds below 12,000 feet
with no significant weather and/or obstructions to visibility.
 TC=TEMPERATURE CELSIUS

 * =Non NWS site. Station does not report precipitation (e.g. rain,
    snow, etc.), thunder, or fog.

DCZ001-MDZ009-015-VAZ040>042-051-053>054-160700-
WASHINGTON METRO

CITY           SKY/WX    TMP DP  RH WIND       PRES   REMARKS
WASHINGTON NAT CLOUDY    68  60  75 S6        30.04S
DULLES         CLOUDY    62  59  90 S5        30.03F
ANDREWS AFB    MOCLDY    62  60  94 S6        30.04S
QUANTICO       CLOUDY    67  60  78 W7        30.04S
COLLEGE PARK*  MOCLDY    61  59  94 CALM      30.04S
LEESBURG*      MOCLDY    63  61  94 CALM      30.03F
MANASSAS*      MOCLDY    63  63 100 CALM      30.03F
GAITHERSBURG*  CLOUDY    63  59  88 CALM      30.07F

$$

MDZ006>007-011-014-160700-
BALTIMORE METRO

CITY           SKY/WX    TMP DP  RH WIND       PRES   REMARKS
BWI AIRPORT    MOCLDY    60  57  89 CALM      30.03F
MD SCIENCE CTR   N/A     65  58  78 MISG      30.04F
MARTIN STATE   CLOUDY    64  61  88 CALM      30.05F
ANNAPOLIS      MOCLDY    65  60  84 S3        30.03F
FORT MEADE*    MOCLDY    55  54  94 CALM      30.06S

$$

MDZ012-015-019>023-160700-
MARYLAND EASTERN SHORE

CITY           SKY/WX    TMP DP  RH WIND       PRES   REMARKS
OCEAN CITY     LGT RAIN  63  58  83 CALM      30.05F
SALISBURY        N/A    N/A N/A N/A MISG        N/A
BAY BRIDGE AP*   N/A     68  61  77 S3        30.05R
CAMBRIDGE*     CLOUDY    63  59  88 CALM      30.03F
EASTON*        CLOUDY    62  62 100 CALM      30.08S

$$

MDZ017>025-160700-
SOUTHERN MARYLAND

CITY           SKY/WX    TMP DP  RH WIND       PRES   REMARKS
PATUXENT RIVER CLOUDY    66  61  84 SW6       30.04S
ST INIGOES     CLOUDY    68  60  75 S8        30.03F
LEONARDTOWN*   CLOUDY    64  61  88 SW3       30.05S

$$

MDZ003>005-160700-
NORTH CENTRAL MARYLAND

CITY           SKY/WX    TMP DP  RH WIND       PRES   REMARKS
FREDERICK*     CLOUDY    63  61  94 CALM      30.05F
HAGERSTOWN APT MOCLDY    61  54  77 CALM      30.02F
WESTMINSTER*   MOCLDY    61  55  82 SE3       30.04F

$$

MDZ501>502-160700-
WESTERN MARYLAND

CITY           SKY/WX    TMP DP  RH WIND       PRES   REMARKS
OAKLAND*       CLOUDY    54  54 100 W10       30.09S
CUMBERLAND*    MOCLDY    57  54  88 CALM      30.08F

$$

VAZ025>031-160700-
SHENANDOAH VALLEY

CITY           SKY/WX    TMP DP  RH WIND       PRES   REMARKS
WINCHESTER*    MOCLDY    61  55  82 CALM      30.03S
STAUNTON*      CLOUDY    65  60  85 CALM      30.07S

$$

WVZ021-048>050-054>055-160700-
EASTERN WEST VIRGINIA PANHANDLE

CITY           SKY/WX    TMP DP  RH WIND       PRES   REMARKS
MARTINSBURG    MOCLDY    60  54  80 CALM      30.03S
PETERSBURG*    MOCLDY    58  56  94 CALM      30.05F

$$

VAZ036>039-050-160700-
CENTRAL FOOTHILLS

CITY           SKY/WX    TMP DP  RH WIND       PRES   REMARKS
CHARLOTTESVILL CLOUDY    66  62  87 CALM      30.03F
ORANGE*        CLOUDY    64  61  88 CALM      30.05F

$$

VAZ055>057-160700-
NORTH AND CENTRAL PIEDMONT

CITY           SKY/WX    TMP DP  RH WIND       PRES   REMARKS
FREDERICKSBRG* CLOUDY    68  62  82 S6        30.03S
STAFFORD*      CLOUDY    65  65 100 CALM      30.08S

$$

NCZ024-NYZ072-PAZ021-071-VAZ022-071-160700-
OTHER REGIONAL OBSERVATIONS

CITY           SKY/WX    TMP DP  RH WIND       PRES   REMARKS
NEW YORK CITY  CLOUDY    63  52  67 CALM      30.08F
PHILADELPHIA   CLOUDY    62  53  72 SW5       30.07F
PITTSBURGH     LGT RAIN  58  55  90 N12       30.05R
ROANOKE        MOCLDY    66  61  84 W9        30.07F
RICHMOND       CLOUDY    66  63  90 SE5       30.04F
RALEIGH        CLOUDY    68  65  90 W3        30.10R

$$

ANZ530>537-160700-
MARINE OBSERVATIONS

STATION/POSITION TIME  TEMP    WIND        PRES
                       AIR SEA DIR/SP/G
                 (UTC) (F)     (DEG/KT/KT) (MB)
THOMAS PT LIGHT  0600   69 74  200/ 13/ 15 1018.0F
BALT KEY BRIDGE  0600   65                   N/A
COVE POINT       0600   67                   N/A
LEWISETTA        0600   66 73                N/A
SOLOMONS ISLAND  0600      76                N/A
PINEY POINT      0500          200/ 12/ 14   N/A

$$



USA.gov is the U.S. government's official web portal to all federal, state and local government web resources and services.